Stations météo

réclame
Mon MeteoGroup
Voorschoten AWS, Pays-Bas (6215): Température de l'air & dewpoint: 09.10.2019 06:00:00 - 15.10.2019 06:00:00 (CEST)Voorschoten AWS, Pays-Bas (6215): Température de l'air 5cm: 09.10.2019 06:00:00 - 15.10.2019 06:00:00 (CEST)Voorschoten AWS, Pays-Bas (6215): Vitesse du vent & gusts: 09.10.2019 06:00:00 - 15.10.2019 06:00:00 (CEST)Voorschoten AWS, Pays-Bas (6215): Direction du vent: 09.10.2019 06:00:00 - 15.10.2019 06:00:00 (CEST)Voorschoten AWS, Pays-Bas (6215): reduced air pressure: 09.10.2019 06:00:00 - 15.10.2019 06:00:00 (CEST)Voorschoten AWS, Pays-Bas (6215): visibility: 09.10.2019 06:00:00 - 15.10.2019 06:00:00 (CEST)Voorschoten AWS, Pays-Bas (6215): Quantités de précipitations: 09.10.2019 06:00:00 - 15.10.2019 06:00:00 (CEST)
Date & Time tt [°C] td [°C] tt 5cm [°C] ff [km/h] ff [knt] fx [km/h] fx [knt] dd ppp [hPa] vv [km] rr [mm]
15.10.2019 06:00:00 15,2 13,8 14,3 14 8 25 14 SSW 1004,3 45 0,0
15.10.2019 05:00:00 14,9 13,5 14,0 14 8 29 16 SSW 1003,8 46 0,0
15.10.2019 04:00:00 15,9 13,7 14,8 14 8 36 19 SSW 1004,0 37 0,0
15.10.2019 03:00:00 16,7 14,0 15,1 22 12 32 18 SSW 1003,9 41 0,0
15.10.2019 02:00:00 16,5 15,1 14,9 14 8 22 12 SSE 1003,7 20 0,0
15.10.2019 01:00:00 16,5 15,2 14,7 14 8 25 14 SE 1003,4 18 0,0
15.10.2019 00:00:00 15,3 14,9 12,8 11 6 18 10 ESE 1003,5 12 0,0
14.10.2019 23:00:00 16,6 15,7 15,4 11 6 18 10 SE 1004,8 14 0,0
14.10.2019 22:00:00 16,3 15,6 14,7 14 8 22 12 SE 1004,7 12 0,0
14.10.2019 21:00:00 15,5 15,2 14,4 18 10 29 16 ESE 1004,9 9 0,0
14.10.2019 20:00:00 15,8 15,2 14,6 14 8 29 16 ESE 1005,8 9 0,0
14.10.2019 19:00:00 14,9 14,6 14,2 14 8 25 14 E 1006,0 8 0,0
14.10.2019 18:00:00 15,1 14,5 14,6 18 10 29 16 E 1006,1 10 0,0
14.10.2019 17:00:00 15,2 14,4 15,0 25 14 32 18 E 1006,9 12 0,0
14.10.2019 16:00:00 14,7 13,5 14,7 18 10 32 18 E 1008,2 16 0,0
14.10.2019 15:00:00 14,6 12,9 14,6 18 10 29 16 ENE 1008,9 20 0,0
14.10.2019 14:00:00 14,5 13,1 13,8 18 10 29 16 ENE 1009,9 21 0,0
14.10.2019 13:00:00 13,7 12,3 13,4 14 8 22 12 NE 1011,1 22 0,0
14.10.2019 12:00:00 14,2 12,1 13,8 11 6 22 12 ENE 1011,7 25 0,3
14.10.2019 11:00:00 13,9 12,0 13,4 7 4 14 8 E 1012,4 22 0,0
14.10.2019 10:00:00 12,7 12,4 12,5 7 4 7 4 E 1012,8 16 0,0
14.10.2019 09:00:00 11,9 11,8 11,5 4 2 7 4 SE 1012,8 18 0,0
14.10.2019 08:00:00 11,4 11,3 11,0 4 2 11 6 S 1012,9 22 0,0
14.10.2019 07:00:00 10,6 10,5 10,4 0 0 7 4 N 1012,8 22 0,0
14.10.2019 06:00:00 11,4 11,4 11,1 7 4 7 4 SSE 1012,5 26 0,0
14.10.2019 05:00:00 11,3 10,8 11,2 7 4 7 4 SSW 1012,3 26 0,0
14.10.2019 04:00:00 12,4 10,5 11,7 4 2 18 10 W 1012,0 27 0,0
14.10.2019 03:00:00 13,1 10,4 11,9 14 8 22 12 W 1012,7 26 0,0
14.10.2019 02:00:00 13,5 10,5 12,5 18 10 29 16 W 1012,1 26 0,0
14.10.2019 01:00:00 14,3 11,4 13,2 14 8 36 19 WSW 1011,3 22 0,0
14.10.2019 00:00:00 15,0 12,6 13,8 18 10 36 19 WSW 1010,4 18 0,0
13.10.2019 23:00:00 15,1 13,2 14,1 22 12 40 21 WSW 1009,5 15 0,0
13.10.2019 22:00:00 15,4 13,8 14,7 22 12 36 19 WSW 1008,4 12 0,0
13.10.2019 21:00:00 15,6 14,1 15,1 25 14 36 19 SW 1007,5 15 0,0
13.10.2019 20:00:00 15,9 14,0 15,1 22 12 43 23 SW 1006,6 21 0,2
13.10.2019 19:00:00 16,5 15,7 15,8 25 14 54 29 SW 1005,9 10 2,2
13.10.2019 18:00:00 19,5 15,2 18,7 32 18 58 31 SW 1004,6 29 0,0
13.10.2019 17:00:00 19,8 16,2 19,0 29 16 47 25 SSW 1004,0 33 0,0
13.10.2019 16:00:00 20,1 16,0 19,1 32 18 47 25 SSW 1004,6 40 0,0
13.10.2019 15:00:00 20,6 16,2 19,4 32 18 47 25 S 1003,9 33 0,0
13.10.2019 14:00:00 20,1 17,3 19,3 22 12 36 19 S 1004,0 34 0,0
13.10.2019 13:00:00 19,0 17,2 17,9 22 12 32 18 S 1004,9 21 0,0
13.10.2019 12:00:00 17,5 17,0 17,3 14 8 25 14 S 1005,5 12 0,2
13.10.2019 11:00:00 16,3 16,1 16,0 11 6 22 12 S 1005,7 10 0,1
13.10.2019 10:00:00 15,6 15,5 15,1 14 8 22 12 SSE 1005,8 8 0,0
13.10.2019 09:00:00 14,0 14,0 12,6 11 6 14 8 S 1006,4 4,5 0,0
13.10.2019 08:00:00 11,6 11,6 9,9 7 4 11 6 SSE 1005,9 2,1 0,0
13.10.2019 07:00:00 11,3 11,3 11,0 7 4 11 6 SE 1006,9 1,4 0,0
13.10.2019 06:00:00 11,8 11,8 11,8 7 4 11 6 ESE 1007,1 1,5 0,0
13.10.2019 05:00:00 11,9 11,9 12,0 7 4 11 6 E 1007,5 1,0 0,0
13.10.2019 04:00:00 11,7 11,7 11,9 7 4 14 8 E 1007,7 3,0 0,0
13.10.2019 03:00:00 11,7 11,6 11,7 7 4 14 8 E 1008,3 4,7 0,0
13.10.2019 02:00:00 11,6 11,6 11,6 7 4 14 8 E 1008,8 6 0,1
13.10.2019 01:00:00 11,5 11,4 11,5 7 4 14 8 ENE 1009,3 8 0,4
13.10.2019 00:00:00 11,3 11,3 11,4 7 4 14 8 ENE 1009,7 6 0,2
12.10.2019 23:00:00 11,3 11,3 11,3 11 6 14 8 E 1009,9 4,3 0,5
12.10.2019 22:00:00 11,4 11,4 11,5 11 6 14 8 E 1010,0 6 0,8
12.10.2019 21:00:00 11,6 11,6 11,7 7 4 11 6 E 1009,8 4,3 1,0
12.10.2019 20:00:00 11,6 11,6 11,8 7 4 11 6 ESE 1009,7 3,4 0,3
12.10.2019 19:00:00 11,7 11,7 12,0 4 2 7 4 ESE 1009,4 4,9 0,8
12.10.2019 18:00:00 11,8 11,8 12,3 4 2 7 4 E 1009,7 3,3 0,9
12.10.2019 17:00:00 11,9 11,9 12,6 7 4 7 4 SSE 1009,8 5 0,6
12.10.2019 16:00:00 12,0 12,0 12,6 7 4 11 6 SSW 1010,3 4,0 1,3
12.10.2019 15:00:00 12,1 12,0 12,8 7 4 11 6 SW 1010,3 2,8 1,0
12.10.2019 14:00:00 12,5 11,9 13,0 7 4 22 12 WSW 1010,2 7 0,0
12.10.2019 13:00:00 12,6 12,1 13,5 11 6 18 10 WSW 1009,8 12 0,1
12.10.2019 12:00:00 12,2 11,4 12,8 14 8 25 14 WSW 1009,5 9 0,0
12.10.2019 11:00:00 12,5 11,8 12,8 14 8 22 12 SW 1009,1 27 0,0
12.10.2019 10:00:00 12,4 11,7 12,7 11 6 25 14 SW 1008,5 8 0,0
12.10.2019 09:00:00 12,3 12,1 12,3 14 8 18 10 WSW 1007,6 9 0,7
12.10.2019 08:00:00 12,1 12,1 12,0 7 4 22 12 WSW 1007,2 3,0 0,8
12.10.2019 07:00:00 12,2 12,2 12,2 11 6 22 12 W 1007,0 3,3 0,7
12.10.2019 06:00:00 12,3 12,3 12,3 11 6 18 10 W 1006,7 3,2 1,0
12.10.2019 05:00:00 12,3 12,2 12,2 14 8 25 14 W 1006,6 3,8 0,7
12.10.2019 04:00:00 12,3 12,2 12,3 18 10 32 18 W 1006,5 4,9 1,0
12.10.2019 03:00:00 12,8 12,8 12,7 14 8 40 21 WNW 1006,5 6 0,8
12.10.2019 02:00:00 14,2 13,1 14,5 25 14 54 29 W 1006,4 14 0,0
12.10.2019 01:00:00 16,2 13,5 15,5 29 16 47 25 SSW 1005,8 42 0,0
12.10.2019 00:00:00 15,8 14,0 15,1 32 18 54 29 SW 1006,0 29 0,0
11.10.2019 23:00:00 15,7 14,0 15,1 29 16 58 31 SW 1006,5 7 0,1
11.10.2019 22:00:00 16,1 13,6 15,5 32 18 54 29 SW 1006,5 29 0,0
11.10.2019 21:00:00 16,1 13,5 15,4 36 19 54 29 SW 1006,3 36 0,0
11.10.2019 20:00:00 15,8 13,4 15,1 29 16 54 29 SW 1006,3 40 0,0
11.10.2019 19:00:00 15,1 13,3 14,4 36 19 50 27 SSW 1006,3 18 0,0
11.10.2019 18:00:00 14,4 13,4 14,1 32 18 50 27 SSW 1006,6 5 0,1
11.10.2019 17:00:00 14,6 13,2 14,1 32 18 54 29 SSW 1007,0 35 0,1
11.10.2019 16:00:00 14,4 13,5 14,1 36 19 54 29 SSW 1007,4 13 0,8
11.10.2019 15:00:00 14,5 13,3 14,2 36 19 61 33 SSW 1007,9 12 0,1
11.10.2019 14:00:00 14,5 13,4 14,3 32 18 58 31 SSW 1008,3 20 0,3
11.10.2019 13:00:00 14,3 13,2 14,1 29 16 50 27 SSW 1009,0 14 0,3
11.10.2019 12:00:00 14,1 12,9 13,9 29 16 50 27 SSW 1009,1 17 0,1
11.10.2019 11:00:00 14,4 12,6 14,1 32 18 58 31 SSW 1009,5 24 0,0
11.10.2019 10:00:00 14,2 12,3 13,9 32 18 54 29 SSW 1009,5 21 0,0
11.10.2019 09:00:00 13,9 12,1 13,4 29 16 50 27 SSW 1009,4 24 0,0
11.10.2019 08:00:00 14,2 12,2 13,6 32 18 43 23 SSW 1009,5 22 0,0
11.10.2019 07:00:00 14,3 12,5 13,7 25 14 43 23 SSW 1009,7 20 0,1
11.10.2019 06:00:00 14,8 12,5 13,9 29 16 43 23 SSW 1009,8 19 0,0
11.10.2019 05:00:00 14,0 11,9 13,0 25 14 50 27 SSW 1010,1 18 0,4
11.10.2019 04:00:00 13,9 11,3 13,3 32 18 50 27 SW 1010,5 20 0,0
11.10.2019 03:00:00 13,9 10,8 13,3 32 18 54 29 SSW 1010,9 19 0,0
11.10.2019 02:00:00 13,9 10,5 13,4 32 18 47 25 SSW 1011,1 21 0,0
11.10.2019 01:00:00 13,8 10,8 13,2 25 14 47 25 SSW 1011,4 17 0,0
11.10.2019 00:00:00 14,0 10,8 13,4 32 18 43 23 SW 1012,0 14 0,0
10.10.2019 23:00:00 13,7 10,8 12,8 25 14 40 21 SSW 1012,3 16 0,0
10.10.2019 22:00:00 13,7 10,8 13,0 25 14 40 21 SSW 1012,4 15 0,0
10.10.2019 21:00:00 14,5 11,4 13,8 25 14 43 23 SW 1012,4 12 0,0
10.10.2019 20:00:00 13,7 10,2 12,4 14 8 25 14 SW 1012,7 16 0,0
10.10.2019 19:00:00 12,9 9,6 11,8 14 8 32 18 SW 1012,7 20 0,0
10.10.2019 18:00:00 14,2 8,9 13,2 25 14 43 23 WSW 1012,6 22 0,0
10.10.2019 17:00:00 14,7 9,7 14,3 25 14 50 27 WSW 1012,5 20 0,0
10.10.2019 16:00:00 14,5 9,6 14,5 29 16 54 29 WSW 1012,5 20 0,0
10.10.2019 15:00:00 13,9 9,6 13,9 32 18 50 27 W 1012,0 22 0,0
10.10.2019 14:00:00 14,0 10,1 13,2 22 12 47 25 WSW 1011,6 24 0,0
10.10.2019 13:00:00 13,8 10,4 12,6 25 14 47 25 W 1011,3 22 0,1
10.10.2019 12:00:00 14,1 9,5 14,4 32 18 47 25 W 1010,7 25 0,0
10.10.2019 11:00:00 13,7 9,7 13,1 32 18 47 25 W 1010,3 25 0,0
10.10.2019 10:00:00 13,0 9,0 12,4 25 14 40 21 WSW 1009,6 31 0,0
10.10.2019 09:00:00 12,0 8,7 10,6 22 12 32 18 WSW 1008,6 34 0,3
10.10.2019 08:00:00 11,3 8,4 10,0 18 10 29 16 WSW 1007,6 36 0,0
10.10.2019 07:00:00 11,8 9,0 10,8 18 10 29 16 W 1007,0 23 0,0
10.10.2019 06:00:00 9,9 9,5 9,3 11 6 18 10 SW 1006,4 19 0,0
10.10.2019 05:00:00 9,9 9,4 9,2 14 8 22 12 SSW 1005,9 23 0,0
10.10.2019 04:00:00 10,5 9,8 10,0 14 8 22 12 SSW 1005,6 14 0,0
10.10.2019 03:00:00 10,3 9,5 9,5 14 8 25 14 SSW 1005,3 23 0,0
10.10.2019 02:00:00 10,8 9,8 10,0 18 10 32 18 SSW 1005,1 22 0,0
10.10.2019 01:00:00 10,9 9,4 9,5 22 12 29 16 SSW 1004,9 22 0,0
10.10.2019 00:00:00 10,7 7,5 9,7 14 8 32 18 WNW 1004,7 20 0,0
09.10.2019 23:00:00 12,7 7,5 11,1 22 12 36 19 W 1004,3 30 0,0
09.10.2019 22:00:00 12,5 8,0 10,9 22 12 36 19 WSW 1004,5 29 0,0
09.10.2019 21:00:00 11,7 8,8 9,7 18 10 58 31 WSW 1004,3 21 2,5
09.10.2019 20:00:00 12,2 8,2 10,4 29 16 47 25 WSW 1004,7 26 0,3
09.10.2019 19:00:00 10,6 8,0 9,7 11 6 40 21 W 1003,6 10 2,3
09.10.2019 18:00:00 11,9 10,0 11,5 22 12 32 18 SW 1003,4 12 0,7
09.10.2019 17:00:00 11,8 10,8 11,4 18 10 43 23 SW 1003,3 11 2,1
09.10.2019 16:00:00 12,6 9,8 12,2 18 10 36 19 SW 1003,4 26 0,8
09.10.2019 15:00:00 12,1 9,6 12,2 25 14 36 19 SW 1003,4 15 0,0
09.10.2019 14:00:00 12,9 9,3 13,4 29 16 47 25 SW 1003,4 35 0,0
09.10.2019 13:00:00 13,0 9,2 13,4 32 18 47 25 SSW 1003,6 37 0,0
09.10.2019 12:00:00 12,1 8,7 12,0 29 16 47 25 SSW 1003,5 38 0,0
09.10.2019 11:00:00 12,4 10,3 12,4 29 16 - - SSW 1004,3 26 0,0
09.10.2019 10:00:00 12,2 10,6 11,9 - - - - - - 24 0,0
09.10.2019 09:00:00 11,8 10,3 11,4 25 14 36 19 SSW 1004,7 18 0,0
09.10.2019 08:00:00 11,0 9,6 10,5 20 11 - - SSW 1005,0 18 -
09.10.2019 07:00:00 11,6 9,8 11,3 18 10 25 14 S 1005,1 18 0,0
09.10.2019 06:00:00 12,9 9,1 11,8 18 10 32 18 SW 1005,4 18 0,0

tt = Température de l'air
td = dewpoint
tt 5cm = Température de l'air 5cm
ff = Vitesse du vent
fx = gusts
dd = Direction du vent
ppp = reduced air pressure
vv = visibility
rr = Quantités de précipitations

stations d'obs. à proximité